Regional Weather Roundup
Issued by NWS

Home | Current Version | Previous Version | Graphics & Text | Print | Product List | Glossary On
Versions: 1 2 3 4 5 6 7 8 9 10 11 12 13 14 15 16 17 18 19 20 21 22 23 24 25 26 27 28 29 30 31 32 33 34 35 36 37 38 39 40 41 42 43 44 45 46 47 48 49 50
000
ASUS43 KTOP 070959
RWRKS

WEATHER ROUNDUP FOR KANSAS
NATIONAL WEATHER SERVICE GOODLAND KS
500 AM CDT TUE JUL 07 2015

NOTE:  "FAIR" INDICATES FEW OR NO CLOUDS BELOW 12,000 FEET WITH NO
SIGNIFICANT WEATHER AND/OR OBSTRUCTIONS TO VISIBILITY.

KSZ001>006-013>018-027>032-041>047-071100-
NORTHWEST KANSAS

CITY           SKY/WX    TMP DP  RH WIND       PRES   REMARKS
GOODLAND       PTCLDY    54  51  90 CALM      30.20F
HAYS           PTCLDY    63  52  67 NE10      30.10F
HILL CITY      CLEAR     58  53  84 N10       30.14F HAZE
RUSSELL        CLOUDY    61  58  90 N8        30.08F FOG
$$

KSZ061>065-074>080-084>089-071100-
SOUTHWEST KANSAS

CITY           SKY/WX    TMP DP  RH WIND       PRES   REMARKS
DODGE CITY     CLOUDY    64  54  69 NE20      30.10R HAZE
ELKHART          N/A     64  50  60 N13         N/A
GARDEN CITY    CLOUDY    61  54  77 NE15      30.12S HAZE
GREAT BEND     CLOUDY    66  55  68 NE16      30.09R
LIBERAL        MOCLDY    64  55  72 N15       30.12R
$$

KSZ066>073-081>083-090>101-071100-
SOUTHEAST KANSAS

CITY           SKY/WX    TMP DP  RH WIND       PRES   REMARKS
CHANUTE        LGT RAIN  71  70  96 NE16G22   29.94R FOG
COFFEYVILLE    CLOUDY    71  71 100 CALM      29.93R
HUTCHINSON     CLOUDY    68  60  75 N13G28    30.03R HAZE
MEDICINE LODGE   N/A     65  63  93 NE18G29   30.00F
NEWTON         CLOUDY    63  57  82 NE13G23   30.04R
PARSONS        CLOUDY    71  70  96 CALM      29.95R
WICHITA INTL   HVY RAIN  65  62  90 N18G24    29.99F FOG
WICHITA JABRA  CLOUDY    64  64 100 N13       30.01R FOG
WICHITA MCCONL RAIN      64  63  94 NE24G32   29.99F FOG
WINFIELD       CLOUDY    66  65  96 N17       29.96R
$$

KSZ007>012-019>026-033>040-048>060-102>105-071100-
NORTHEAST KANSAS

CITY           SKY/WX    TMP DP  RH WIND       PRES   REMARKS
CONCORDIA      PTCLDY    61  57  87 N9        30.09S FOG
EMPORIA        CLOUDY    62  60  93 NE13G22   30.01R FOG
LAWRENCE       LGT RAIN  62  59  90 NE13G20   30.00F FOG
MANHATTAN      CLOUDY    67  62  84 NE14G21   30.03S HAZE
OLATHE IND     CLOUDY    61  59  93 NE16G29   30.00R FOG
OLATHE EXE     LGT RAIN  60  58  92 NE20G30   29.98S FOG
SALINA         CLOUDY    69  59  70 N17       30.05S HAZE
TOPEKA BILLARD HVY RAIN  63  62  97 N6        30.01F VSB 1
TOPEKA FORBES  LGT RAIN  63  61  93 NE9       30.00F FOG
$$


USA.gov is the U.S. government's official web portal to all federal, state and local government web resources and services.